When you browse on this site, cookies collect data to enhance your experience and personalize the content and advertising you see.
Visit our Privacy Policy to learn more. By continuing to use the site, you agree to this use of cookies and data.
  • In Austria
  • List of Countries
  • For 7 days
  • Water Temperature
  • Satellite Maps
  • Weather Map
  • News
  • Weather Widgets
  • user-avatar
    Login

    Hourly Weather Nevoliha

    Today, 17 January, Thursday

    Time Temperature Precipitation Wind Pressure Humidity
    00:00 -9°C° 0 mm 4 mps 735 mmHg 92%
    01:00 -9°C° 0 mm 4 mps 735 mmHg 90%
    02:00 -9°C° 0 mm 4 mps 735 mmHg 89%
    03:00 -9°C° 0 mm 4 mps 735 mmHg 88%
    04:00 -10°C° 0 mm 4 mps 736 mmHg 88%
    05:00 -10°C° 0 mm 4 mps 736 mmHg 87%
    06:00 -11°C° 0 mm 4 mps 735 mmHg 90%
    07:00 -12°C° 0 mm 4 mps 735 mmHg 92%
    08:00 -14°C° 0 mm 4 mps 735 mmHg 95%
    09:00 -13°C° 0.1 mm 5 mps 734 mmHg 94%
    10:00 -13°C° 0.1 mm 5 mps 734 mmHg 93%
    11:00 -12°C° 0.1 mm 6 mps 733 mmHg 92%
    12:00 -10°C° 0.5 mm 6 mps 732 mmHg 92%
    13:00 -9°C° 0.5 mm 7 mps 731 mmHg 91%
    14:00 -7°C° 0.5 mm 7 mps 731 mmHg 91%
    15:00 -6°C° 0.4 mm 7 mps 730 mmHg 90%
    16:00 -4°C° 0.4 mm 7 mps 730 mmHg 89%
    17:00 -3°C° 0.4 mm 7 mps 729 mmHg 88%
    18:00 -3°C° 0.4 mm 7 mps 728 mmHg 88%
    19:00 -4°C° 0.4 mm 8 mps 728 mmHg 89%
    20:00 -4°C° 0.4 mm 8 mps 727 mmHg 89%
    21:00 -4°C° 0.5 mm 8 mps 727 mmHg 89%
    22:00 -2°C° 0.5 mm 7 mps 726 mmHg 88%
    23:00 -2°C° 0.5 mm 7 mps 726 mmHg 87%

    Tomorrow, 18 January, Friday

    Time Temperature Precipitation Wind Pressure Humidity
    00:00 -2°C° 0.3 mm 7 mps 726 mmHg 87%
    01:00 -2°C° 0.3 mm 7 mps 727 mmHg 86%
    02:00 -2°C° 0.3 mm 7 mps 727 mmHg 86%
    03:00 -2°C° 0 mm 6 mps 728 mmHg 86%
    04:00 -3°C° 0 mm 6 mps 729 mmHg 86%
    05:00 -4°C° 0 mm 5 mps 729 mmHg 85%
    06:00 -4°C° 0 mm 5 mps 730 mmHg 86%
    07:00 -5°C° 0 mm 5 mps 731 mmHg 86%
    08:00 -6°C° 0 mm 5 mps 732 mmHg 86%
    09:00 -5°C° 0 mm 4 mps 733 mmHg 87%
    10:00 -7°C° 0 mm 4 mps 733 mmHg 87%
    11:00 -7°C° 0 mm 4 mps 734 mmHg 88%
    12:00 -6°C° 0.1 mm 3 mps 734 mmHg 88%
    13:00 -7°C° 0.1 mm 3 mps 735 mmHg 89%
    14:00 -6°C° 0.1 mm 2 mps 735 mmHg 89%
    15:00 -7°C° 0 mm 2 mps 736 mmHg 90%
    16:00 -8°C° 0 mm 2 mps 736 mmHg 91%
    17:00 -8°C° 0 mm 1 mps 736 mmHg 92%
    18:00 -9°C° 0.1 mm 1 mps 736 mmHg 93%
    19:00 -9°C° 0.1 mm 1 mps 735 mmHg 94%
    20:00 -9°C° 0.1 mm 1 mps 735 mmHg 95%
    21:00 -10°C° 0.8 mm 2 mps 735 mmHg 95%
    22:00 -10°C° 0.8 mm 2 mps 735 mmHg 96%
    23:00 -10°C° 0.8 mm 2 mps 734 mmHg 97%

    Day after tomorrow, 19 January, Saturday

    Time Temperature Precipitation Wind Pressure Humidity
    00:00 -12°C° 0.3 mm 3 mps 735 mmHg 96%
    01:00 -12°C° 0.3 mm 3 mps 735 mmHg 95%
    02:00 -13°C° 0.3 mm 3 mps 735 mmHg 95%
    03:00 -13°C° 0 mm 3 mps 736 mmHg 95%
    04:00 -14°C° 0 mm 3 mps 737 mmHg 95%
    05:00 -15°C° 0 mm 3 mps 737 mmHg 95%
    06:00 -14°C° 0 mm 3 mps 738 mmHg 94%
    07:00 -14°C° 0 mm 4 mps 739 mmHg 93%
    08:00 -14°C° 0 mm 4 mps 739 mmHg 91%
    09:00 -12°C° 0 mm 4 mps 740 mmHg 91%
    10:00 -12°C° 0 mm 4 mps 740 mmHg 90%
    11:00 -12°C° 0 mm 4 mps 740 mmHg 89%
    12:00 -11°C° 0 mm 4 mps 741 mmHg 89%
    13:00 -10°C° 0 mm 3 mps 741 mmHg 90%
    14:00 -9°C° 0 mm 3 mps 741 mmHg 90%
    15:00 -9°C° 0.2 mm 3 mps 741 mmHg 92%
    16:00 -9°C° 0.2 mm 3 mps 741 mmHg 93%
    17:00 -7°C° 0.2 mm 2 mps 742 mmHg 95%
    18:00 -8°C° 0.2 mm 3 mps 742 mmHg 94%
    19:00 -8°C° 0.2 mm 3 mps 742 mmHg 94%
    20:00 -7°C° 0.2 mm 3 mps 742 mmHg 93%
    21:00 -8°C° 0.1 mm 3 mps 742 mmHg 94%
    22:00 -8°C° 0.1 mm 2 mps 742 mmHg 95%
    23:00 -8°C° 0.1 mm 2 mps 743 mmHg 96%

    20 January, Sunday

    Time Temperature Precipitation Wind Pressure Humidity
    00:00 -9°C° 0.1 mm 2 mps 743 mmHg 95%
    01:00 -9°C° 0.1 mm 2 mps 743 mmHg 95%
    02:00 -10°C° 0.1 mm 2 mps 744 mmHg 95%
    03:00 -10°C° 0 mm 2 mps 744 mmHg 95%
    04:00 -10°C° 0 mm 2 mps 743 mmHg 96%
    05:00 -10°C° 0 mm 2 mps 743 mmHg 97%
    06:00 -10°C° 0.1 mm 2 mps 743 mmHg 96%
    07:00 -10°C° 0.1 mm 3 mps 744 mmHg 96%
    08:00 -9°C° 0.1 mm 3 mps 744 mmHg 95%
    09:00 -9°C° 0.1 mm 3 mps 744 mmHg 94%
    10:00 -9°C° 0.1 mm 4 mps 744 mmHg 92%
    11:00 -9°C° 0.1 mm 4 mps 744 mmHg 91%
    12:00 -9°C° 0.1 mm 4 mps 744 mmHg 90%
    13:00 -8°C° 0.1 mm 4 mps 744 mmHg 90%
    14:00 -8°C° 0.1 mm 4 mps 743 mmHg 89%
    15:00 -8°C° 0.1 mm 4 mps 743 mmHg 90%
    16:00 -8°C° 0.1 mm 4 mps 743 mmHg 90%
    17:00 -8°C° 0.1 mm 4 mps 743 mmHg 91%
    18:00 -10°C° 0 mm 4 mps 743 mmHg 92%
    19:00 -10°C° 0 mm 3 mps 743 mmHg 92%
    20:00 -12°C° 0 mm 3 mps 744 mmHg 93%
    21:00 -13°C° 0 mm 3 mps 744 mmHg 94%
    22:00 -14°C° 0 mm 3 mps 744 mmHg 95%
    23:00 -15°C° 0 mm 3 mps 744 mmHg 96%

    21 January, Monday

    Time Temperature Precipitation Wind Pressure Humidity
    00:00 -14°C° 0 mm 2 mps 744 mmHg 96%
    01:00 -14°C° 0 mm 2 mps 744 mmHg 97%
    02:00 -15°C° 0 mm 2 mps 744 mmHg 97%
    03:00 -15°C° 0 mm 2 mps 744 mmHg 97%
    04:00 -13°C° 0 mm 1 mps 744 mmHg 97%
    05:00 -13°C° 0 mm 1 mps 743 mmHg 97%
    06:00 -12°C° 0 mm 1 mps 743 mmHg 97%
    07:00 -12°C° 0 mm 1 mps 743 mmHg 97%
    08:00 -14°C° 0 mm 2 mps 743 mmHg 96%
    09:00 -13°C° 0.2 mm 2 mps 742 mmHg 96%
    10:00 -12°C° 0.2 mm 2 mps 742 mmHg 97%
    11:00 -10°C° 0.2 mm 2 mps 742 mmHg 97%
    12:00 -10°C° 0.3 mm 2 mps 742 mmHg 96%
    13:00 -9°C° 0.3 mm 2 mps 742 mmHg 96%
    14:00 -10°C° 0.3 mm 3 mps 742 mmHg 96%
    15:00 -10°C° 0.2 mm 3 mps 743 mmHg 95%
    16:00 -12°C° 0.2 mm 3 mps 743 mmHg 95%
    17:00 -12°C° 0.2 mm 4 mps 743 mmHg 94%
    18:00 -14°C° 0.1 mm 4 mps 743 mmHg 94%
    19:00 -14°C° 0.1 mm 4 mps 744 mmHg 93%
    20:00 -15°C° 0.1 mm 4 mps 744 mmHg 93%
    21:00 -17°C° 0 mm 4 mps 744 mmHg 94%
    22:00 -19°C° 0 mm 4 mps 744 mmHg 95%
    23:00 -19°C° 0 mm 3 mps 744 mmHg 97%

    22 January, Tuesday

    Time Temperature Precipitation Wind Pressure Humidity
    00:00 -21°C° 0 mm 3 mps 744 mmHg 97%
    01:00 -20°C° 0 mm 2 mps 744 mmHg 98%
    02:00 -21°C° 0 mm 2 mps 744 mmHg 99%
    03:00 -20°C° 0 mm 1 mps 744 mmHg 99%
    04:00 -20°C° 0 mm 1 mps 744 mmHg 99%
    05:00 -21°C° 0 mm 1 mps 744 mmHg 99%
    06:00 -21°C° 0 mm 1 mps 744 mmHg 99%
    07:00 -20°C° 0 mm 0 mps 745 mmHg 99%
    08:00 -20°C° 0 mm 0 mps 745 mmHg 99%
    09:00 -19°C° 0 mm 0 mps 745 mmHg 98%
    10:00 -18°C° 0 mm 0 mps 745 mmHg 97%
    11:00 -16°C° 0 mm 1 mps 746 mmHg 95%
    12:00 -16°C° 0 mm 1 mps 746 mmHg 96%
    13:00 -16°C° 0 mm 1 mps 746 mmHg 96%
    14:00 -15°C° 0 mm 1 mps 746 mmHg 96%
    15:00 -16°C° 0 mm 1 mps 746 mmHg 96%
    16:00 -16°C° 0 mm 1 mps 746 mmHg 97%
    17:00 -16°C° 0 mm 1 mps 747 mmHg 97%
    18:00 -16°C° 0 mm 1 mps 747 mmHg 97%
    19:00 -16°C° 0 mm 1 mps 747 mmHg 97%
    20:00 -16°C° 0 mm 1 mps 747 mmHg 97%
    21:00 -17°C° 0 mm 1 mps 747 mmHg 97%
    22:00 -17°C° 0 mm 1 mps 747 mmHg 97%
    23:00 -17°C° 0 mm 1 mps 747 mmHg 98%
    Show more